Regional Weather Roundup
Issued by NWS Northern Indiana

Home | Current Version | Previous Version | Graphics & Text | Print | Product List | Glossary On
Versions: 1 2 3 4 5 6 7 8 9 10 11 12 13 14 15 16 17 18 19 20 21 22 23 24 25 26 27 28 29 30 31 32 33 34 35 36 37 38 39 40 41 42 43 44 45 46 47 48 49 50
508
ASUS43 KIWX 301510
RWRIWX

KIWX WEATHER ROUNDUP
NATIONAL WEATHER SERVICE NORTHERN INDIANA
1100 AM EDT SAT JUL 30 2016

NOTE: "FAIR" INDICATES FEW OR NO CLOUDS BELOW 12,000 FEET WITH NO
SIGNIFICANT WEATHER AND/OR OBSTRUCTIONS TO VISIBILITY.

* THESE STATIONS ARE NOT UNDER NWS QUALITY CONTROL. THEY ALSO MAY NOT
  REPORT WEATHER SUCH AS PRECIPITATION OR FOG.

INZ001>027-301600-
NORTHERN INDIANA

CITY           SKY/WX    TMP DP  RH WIND       PRES   REMARKS
GARY*          PTSUNNY   73  72  94 NE6       29.98R
VALPARAISO     CLOUDY    72  68  87 E5        29.98R
MICHIGAN CITY* CLOUDY    70  68  94 CALM      29.99S
LAPORTE*       CLOUDY    71  71  99 E7        29.99S
KNOX*          CLOUDY    70  64  83 CALM      29.97S
SOUTH BEND     CLOUDY    67  62  84 NE10      29.99S
ELKHART*       CLOUDY    68  63  83 NE10      30.00R
GOSHEN         CLOUDY    70  62  76 NE8       29.99R
MONTICELLO*    CLOUDY    69  66  88 CALM      29.96F FOG
LOGANSPORT*    CLOUDY    70  68  94 SW3       29.97S FOG
ROCHESTER*     PTSUNNY   75  72  88 CALM      29.97S
WARSAW*        CLOUDY    70  66  88 CALM      29.99R
ANGOLA*        CLOUDY    66  57  72 N3        29.99R
FORT WAYNE     CLOUDY    73  67  81 CALM      29.97S
HUNTINGTON*    CLOUDY    74  71  90 CALM      29.97R
PERU/GRISSOM   CLOUDY    72  70  93 VRB2      29.96S
MARION*        CLOUDY    69  69 100 CALM      29.98S FOG

$$
INZ028>050-301600-
CENTRAL INDIANA

CITY           SKY/WX    TMP DP  RH WIND       PRES   REMARKS
LAFAYETTE      CLOUDY    71  69  93 VRB3      29.96S
KOKOMO*        CLOUDY    70  64  83 CALM      29.97S
MUNCIE*        CLOUDY    75  70  84 VRB5      29.97R
INDIANAPOLIS   MOSUNNY   80  65  59 W13       29.97S

$$
MIZ043>046-050>051-056>058-064>065-071>073-077>080-301600-
SOUTHWEST LOWER MICHIGAN

CITY           SKY/WX    TMP DP  RH WIND       PRES   REMARKS
BATTLE CREEK   RAIN      63  63 100 E7        30.01S
BENTON HARBOR  CLOUDY    71  65  81 MISG      29.98S
COLDWATER*     CLOUDY    66  64  93 N8        30.00R
HILLSDALE*     CLOUDY    67  63  86 N6        29.99S
HOLLAND        CLOUDY    68  63  84 E8        30.02S
GRAND RAPIDS   CLOUDY    67  63  87 E10       30.02R
KALAMAZOO      RAIN      66  63  90 NW6       30.01R FOG
STURGIS*       CLOUDY    66  62  89 NE7       29.99S
THREE RIVERS*  HVY RAIN  67  63  88 N3        30.01R

$$
OHZ001>008-015>018-024>025-301600-
NORTHWEST OHIO

CITY           SKY/WX    TMP DP  RH WIND       PRES   REMARKS
DEFIANCE       CLOUDY    74  66  76 CALM      29.97S
FINDLAY        PTSUNNY   78  69  73 W7        29.95S
TOLEDO EXPRESS CLOUDY    76  70  82 N7        29.95S
TOLEDO METCALF PTSUNNY   80  71  74 E8        29.95S
LIMA           PTSUNNY   75  71  87 W9        29.97R

$$
AND FOR LAKE MICHIGAN COASTAL AND OPEN LAKE BUOY OBSERVATIONS

STATION/POSITION TEMP    WIND        PRES    VSBY  WAVE
                 AIR SEA DIR/SP/G                  HT/PER
                 (F)     (DEG/KT/KT) (MB)    (MI)  (FT/S)
CALUMET HARBOR    70      40/  6/  8 1014.4R
MICHIGAN CITY     65      30/ 15/ 16   N/A
BURNS HARBOR      68      50/ 10/ 12 1015.2R
SAINT JOSEPH      69      40/  3/  5 1016.3R
SOUTH LAKE BUOY   68 73   70/  8/ 10 1015.5R         2/ 4
4 MI NW BRIDGMAN  67 70   90/  8/ 10 1015.2S         2
MICHIGAN CITY     68 72   80/ 10/ 14   N/A           3/ 5

$$
&&




USA.gov is the U.S. government's official web portal to all federal, state and local government web resources and services.